{"data":{"norad_id":66083,"epoch":"2026-05-25T00:33:26.258976Z","epoch_age_seconds":76142,"freshness":"FRESH","line1":"1 66083U 25235AB  26145.02322059  .00021193  00000+0  72554-3 0  9992","line2":"2 66083  53.1601 251.0437 0001675  91.6240 268.4953 15.30204181 34575","mean_motion":15.30204181,"eccentricity":0.0001675,"inclination_deg":53.1601,"raan_deg":251.0437,"arg_perigee_deg":91.624,"mean_anomaly_deg":268.4953,"bstar":0.00072554,"rev_number":3457,"period_min":94.105088580986,"perigee_km":474.05465135477,"apogee_km":476.35052011599,"semimajor_km":6853.3395857354,"source":"CELESTRAK","updated_at":"2026-05-25T13:38:21.025805Z"}}